| time (UTC) | temp F | wind direction | speed MPH | gust MPH | rain 1hr in | rain 24hr in | rain mn in | humidity % | barometer mb |
| 20260904093035 | 54 | 52 | 9.0 | 12.0 | 0.00 | 0.00 | 0.00 | 62 | 1008.4 |
| 20260904091538 | 54 | 38 | 9.0 | 13.0 | 0.00 | 0.00 | 0.00 | 61 | 1008.6 |
| 20260904090045 | 55 | 40 | 11.0 | 14.0 | 0.00 | 0.00 | 0.00 | 60 | 1008.8 |
| 20260904084534 | 54 | 44 | 9.0 | 14.0 | 0.00 | 0.00 | 0.00 | 61 | 1009.1 |
| 20260904083105 | 54 | 45 | 11.0 | 14.0 | 0.00 | 0.00 | 0.00 | 61 | 1009.1 |
| 20260904081536 | 55 | 59 | 8.0 | 12.0 | 0.00 | 0.00 | 0.00 | 61 | 1009.4 |
| 20260904080037 | 56 | 48 | 8.0 | 11.0 | 0.00 | 0.00 | 0.00 | 60 | 1009.4 |
| 20260904074533 | 57 | 51 | 9.0 | 12.0 | 0.00 | 0.00 | 0.00 | 58 | 1009.7 |
| 20260904073036 | 57 | 28 | 4.0 | 8.0 | 0.00 | 0.00 | 0.00 | 59 | 1009.8 |
| 20260904071547 | 58 | 5 | 8.0 | 13.0 | 0.00 | 0.00 | 0.00 | 58 | 1009.9 |
| 20260904070105 | 57 | 14 | 5.0 | 8.0 | 0.00 | 0.00 | 0.00 | 61 | 1009.9 |
| 20260904064538 | 58 | 15 | 7.0 | 9.0 | 0.00 | 0.00 | 0.00 | 56 | 1009.9 |
| 20260904063036 | 57 | 35 | 5.0 | 9.0 | 0.00 | 0.00 | 0.00 | 59 | 1009.9 |
| 20260904061536 | 57 | 31 | 5.0 | 9.0 | 0.00 | 0.00 | 0.00 | 59 | 1010.0 |
| 20260904060036 | 58 | 28 | 5.0 | 9.0 | 0.00 | 0.00 | 0.00 | 58 | 1009.9 |
| 20260904054544 | 58 | 9 | 7.0 | 10.0 | 0.00 | 0.00 | 0.00 | 56 | 1010.0 |
| 20260904053048 | 57 | 337 | 6.0 | 10.0 | 0.00 | 0.00 | 0.00 | 59 | 1010.1 |
| 20260904051540 | 56 | 330 | 5.0 | 8.0 | 0.00 | 0.00 | 0.00 | 60 | 1010.4 |
| 20260904050038 | 57 | 338 | 4.0 | 6.0 | 0.00 | 0.00 | 0.00 | 59 | 1010.4 |
| 20260904044538 | 58 | 333 | 2.0 | 9.0 | 0.00 | 0.00 | 0.00 | 59 | 1010.6 |
| 20260904043038 | 57 | 13 | 7.0 | 9.0 | 0.00 | 0.00 | 0.00 | 57 | 1010.5 |
| 20260904041534 | 57 | 27 | 6.0 | 9.0 | 0.00 | 0.00 | 0.00 | 56 | 1010.5 |
| 20260904040043 | 56 | 19 | 5.0 | 7.0 | 0.00 | 0.00 | 0.00 | 57 | 1010.6 |
| 20260904034536 | 55 | 360 | 3.0 | 6.0 | 0.00 | 0.00 | 0.00 | 61 | 1010.4 |
| 20260904033042 | 55 | 317 | 6.0 | 9.0 | 0.00 | 0.00 | 0.00 | 62 | 1010.5 |
| 20260904031547 | 59 | 317 | 5.0 | 11.0 | 0.00 | 0.00 | 0.00 | 52 | 1010.4 |
| 20260904030037 | 60 | 12 | 8.0 | 9.0 | 0.00 | 0.00 | 0.00 | 50 | 1010.4 |
| 20260904024539 | 60 | 19 | 8.0 | 10.0 | 0.00 | 0.00 | 0.00 | 52 | 1010.1 |
| 20260904023037 | 61 | 42 | 6.0 | 9.0 | 0.00 | 0.00 | 0.00 | 50 | 1010.1 |
| 20260904021535 | 63 | 355 | 8.0 | 12.0 | 0.00 | 0.00 | 0.00 | 46 | 1009.7 |
| 20260904020035 | 64 | 350 | 10.0 | 15.0 | 0.00 | 0.00 | 0.00 | 44 | 1009.6 |
| 20260904014539 | 66 | 317 | 10.0 | 14.0 | 0.00 | 0.00 | 0.00 | 43 | 1009.4 |
| 20260904013043 | 68 | 323 | 5.0 | 11.0 | 0.00 | 0.00 | 0.00 | 41 | 1009.6 |
| 20260904011543 | 69 | 317 | 7.0 | 14.0 | 0.00 | 0.00 | 0.00 | 39 | 1009.5 |
| 20260904010039 | 70 | 342 | 8.0 | 18.0 | 0.00 | 0.00 | 0.00 | 39 | 1009.6 |
| 20260904004537 | 70 | 346 | 11.0 | 18.0 | 0.00 | 0.01 | 0.00 | 38 | 1009.5 |
| 20260904003041 | 71 | 292 | 15.0 | 19.0 | 0.00 | 0.01 | 0.00 | 37 | 1009.3 |
| 20260904001535 | 72 | 279 | 11.0 | 17.0 | 0.00 | 0.01 | 0.00 | 36 | 1009.3 |
| 20260904000039 | 72 | 297 | 15.0 | 21.0 | 0.00 | 0.01 | 0.00 | 36 | 1009.0 |
| 20260903234536 | 73 | 292 | 11.0 | 16.0 | 0.00 | 0.04 | 0.00 | 36 | 1009.0 |
| 20260903233038 | 73 | 302 | 13.0 | 26.0 | 0.00 | 0.04 | 0.00 | 37 | 1008.7 |
| 20260903231540 | 72 | 279 | 14.0 | 19.0 | 0.00 | 0.04 | 0.00 | 38 | 1008.9 |
| 20260903230045 | 72 | 281 | 11.0 | 17.0 | 0.00 | 0.04 | 0.00 | 36 | 1008.8 |
| 20260903224535 | 73 | 305 | 11.0 | 16.0 | 0.00 | 0.07 | 0.00 | 35 | 1008.6 |
| 20260903223035 | 74 | 246 | 11.0 | 22.0 | 0.00 | 0.07 | 0.00 | 34 | 1008.3 |
| 20260903221535 | 73 | 250 | 11.0 | 23.0 | 0.00 | 0.07 | 0.00 | 34 | 1008.2 |
| 20260903220039 | 74 | 217 | 13.0 | 25.0 | 0.00 | 0.07 | 0.00 | 31 | 1008.1 |
| 20260903214544 | 74 | 219 | 19.0 | 24.0 | 0.00 | 0.07 | 0.00 | 31 | 1008.0 |
| 20260903213045 | 74 | 256 | 13.0 | 26.0 | 0.00 | 0.07 | 0.00 | 32 | 1008.0 |
| 20260903211539 | 74 | 227 | 15.0 | 29.0 | 0.00 | 0.07 | 0.00 | 33 | 1007.9 |
| 20260903210043 | 74 | 209 | 14.0 | 24.0 | 0.00 | 0.07 | 0.00 | 33 | 1007.9 |
| 20260903204534 | 74 | 221 | 14.0 | 24.0 | 0.00 | 0.07 | 0.00 | 33 | 1007.9 |
| 20260903203036 | 72 | 241 | 14.0 | 24.0 | 0.00 | 0.07 | 0.00 | 35 | 1008.1 |
| 20260903201544 | 71 | 216 | 14.0 | 21.0 | 0.00 | 0.07 | 0.00 | 36 | 1008.1 |
| 20260903200035 | 71 | 211 | 14.0 | 25.0 | 0.00 | 0.07 | 0.00 | 37 | 1008.2 |
| 20260903194533 | 71 | 227 | 18.0 | 30.0 | 0.00 | 0.07 | 0.00 | 36 | 1008.2 |
| 20260903193038 | 71 | 229 | 19.0 | 28.0 | 0.00 | 0.07 | 0.00 | 35 | 1008.2 |
| 20260903191537 | 71 | 240 | 20.0 | 29.0 | 0.00 | 0.07 | 0.00 | 36 | 1008.3 |
| 20260903190036 | 71 | 209 | 19.0 | 32.0 | 0.00 | 0.07 | 0.00 | 37 | 1008.1 |
| 20260903184534 | 70 | 240 | 21.0 | 29.0 | 0.00 | 0.07 | 0.00 | 37 | 1008.0 |
| 20260903183039 | 70 | 234 | 16.0 | 26.0 | 0.00 | 0.07 | 0.00 | 38 | 1008.0 |
| 20260903181537 | 69 | 236 | 19.0 | 29.0 | 0.00 | 0.07 | 0.00 | 37 | 1008.2 |
| 20260903180042 | 69 | 232 | 17.0 | 25.0 | 0.00 | 0.07 | 0.00 | 43 | 1008.3 |
| 20260903174534 | 67 | 241 | 13.0 | 23.0 | 0.00 | 0.07 | 0.00 | 45 | 1008.2 |
| 20260903173037 | 66 | 278 | 12.0 | 17.0 | 0.00 | 0.07 | 0.00 | 50 | 1008.4 |
| 20260903171535 | 64 | 236 | 7.0 | 16.0 | 0.00 | 0.07 | 0.00 | 54 | 1008.6 |
| 20260903170046 | 64 | 240 | 10.0 | 17.0 | 0.00 | 0.07 | 0.00 | 55 | 1008.3 |
| 20260903164538 | 62 | 263 | 7.0 | 14.0 | 0.00 | 0.07 | 0.00 | 60 | 1008.5 |
| 20260903163037 | 59 | 242 | 7.0 | 11.0 | 0.00 | 0.07 | 0.00 | 63 | 1008.5 |
| 20260903161536 | 57 | 249 | 6.0 | 10.0 | 0.00 | 0.07 | 0.00 | 68 | 1008.4 |
| 20260903160038 | 56 | 264 | 5.0 | 10.0 | 0.00 | 0.07 | 0.00 | 71 | 1008.4 |
| 20260903154543 | 55 | 246 | 7.0 | 12.0 | 0.00 | 0.07 | 0.00 | 73 | 1008.5 |
| 20260903153046 | 54 | 236 | 9.0 | 13.0 | 0.00 | 0.07 | 0.00 | 74 | 1008.5 |
| 20260903151537 | 54 | 230 | 8.0 | 13.0 | 0.00 | 0.07 | 0.00 | 75 | 1008.6 |
| 20260903150035 | 53 | 242 | 7.0 | 14.0 | 0.00 | 0.07 | 0.00 | 76 | 1008.4 |
| 20260903144541 | 52 | 230 | 9.0 | 13.0 | 0.00 | 0.07 | 0.00 | 77 | 1008.6 |
| 20260903143045 | 51 | 229 | 8.0 | 13.0 | 0.00 | 0.07 | 0.00 | 77 | 1008.4 |
| 20260903141542 | 51 | 215 | 9.0 | 16.0 | 0.00 | 0.07 | 0.00 | 77 | 1008.2 |
| 20260903140038 | 50 | 203 | 9.0 | 14.0 | 0.00 | 0.07 | 0.00 | 78 | 1008.0 |
| 20260903134536 | 50 | 233 | 7.0 | 14.0 | 0.00 | 0.07 | 0.00 | 77 | 1007.9 |
| 20260903133035 | 49 | 217 | 8.0 | 12.0 | 0.00 | 0.07 | 0.00 | 78 | 1007.8 |
| 20260903131535 | 49 | 202 | 7.0 | 14.0 | 0.00 | 0.07 | 0.00 | 78 | 1007.6 |
| 20260903130038 | 48 | 207 | 7.0 | 9.0 | 0.00 | 0.07 | 0.00 | 80 | 1007.4 |
| 20260903124535 | 46 | 188 | 7.0 | 9.0 | 0.00 | 0.07 | 0.00 | 81 | 1007.2 |
| 20260903123035 | 47 | 172 | 6.0 | 14.0 | 0.00 | 0.07 | 0.00 | 78 | 1006.9 |
| 20260903121534 | 49 | 214 | 10.0 | 16.0 | 0.00 | 0.07 | 0.00 | 73 | 1006.9 |
| 20260903120039 | 47 | 244 | 8.0 | 12.0 | 0.00 | 0.07 | 0.00 | 76 | 1006.9 |
| 20260903114532 | 50 | 245 | 9.0 | 15.0 | 0.00 | 0.07 | 0.00 | 72 | 1007.0 |
| 20260903113033 | 46 | 234 | 2.0 | 10.0 | 0.00 | 0.07 | 0.00 | 75 | 1007.2 |
| 20260903111546 | 51 | 252 | 7.0 | 11.0 | 0.00 | 0.07 | 0.00 | 70 | 1007.1 |
| 20260903110034 | 49 | 261 | 5.0 | 7.0 | 0.00 | 0.07 | 0.00 | 73 | 1007.3 |
| 20260903104537 | 47 | 257 | 2.0 | 4.0 | 0.00 | 0.07 | 0.00 | 76 | 1007.3 |
| 20260903103051 | 48 | 198 | 5.0 | 8.0 | 0.00 | 0.07 | 0.00 | 74 | 1007.3 |
| 20260903101534 | 48 | 229 | 3.0 | 5.0 | 0.00 | 0.07 | 0.00 | 75 | 1007.2 |
| 20260903100038 | 47 | 0 | 0.0 | 2.0 | 0.00 | 0.07 | 0.00 | 77 | 1007.1 |
| 20260903094539 | 49 | 227 | 0.0 | 3.0 | 0.00 | 0.07 | 0.00 | 75 | 1007.3 |